Regional Weather Roundup
Issued by NWS Kansas City/Pleasant Hill, MO

Home | Current Version | Previous Version | Text Only | Print | Product List | Glossary On
Versions: 1 2 3 4 5 6 7 8 9 10 11 12 13 14 15 16 17 18 19 20 21 22 23 24 25 26 27 28
000
ASUS43 KEAX 290410
RWREAX

WEATHER ROUNDUP FOR EASTERN KANSAS AND NORTHWEST MISSOURI
NATIONAL WEATHER SERVICE KANSAS CITY/PLEASANT HILL MO
1100 PM CDT FRI APR 28 2017

KSZ040-057-103>105-MOZ028-029-037-043-290500-
...KANSAS CITY METROPOLITAN AREA...

CITY           SKY/WX    TMP DP  RH WIND       PRES   REMARKS
K.C. INTL      CLOUDY    45  44  97 N10       29.96R
K.C. DOWNTOWN  CLOUDY    48  45  89 N10       29.95R
LEES SUMMIT    CLOUDY    47  47 100 N14       29.93R FOG
OLATHE - IXD   CLOUDY    48  47  96 N13       29.94R
OLATHE - OJC   CLOUDY    48  48 100 N12       29.93R
LAWRENCE       CLOUDY    47  46  97 N10       29.96R

$$

MOZ001>008-011>017-020>025-030>033-038>040-044>046-053-054-290500-
...NORTHERN AND CENTRAL MISSOURI...

CITY           SKY/WX    TMP DP  RH WIND       PRES   REMARKS
ST. JOSEPH     CLOUDY    44  44 100 NE10      29.99R
MOSBY          CLOUDY    45  45 100 N10       29.95S
WHITEMAN AFB   CLOUDY    52  52 100 N15       29.86F
CLINTON        CLOUDY    59  59 100 N14       29.84F FOG
SEDALIA        CLOUDY    60  60 100 N12       29.85F
WARSAW         NOT AVBL
CHILLICOTHE      N/A     46  44  93 N7        29.97R
KIRKSVILLE     CLOUDY    45  31  58 N13       29.96R HAZE

$$

MOZ041-047>049-056>058-063>065-088>090-097-290500-
...EASTERN AND SOUTHERN MISSOURI...

CITY           SKY/WX    TMP DP  RH WIND       PRES   REMARKS
ST. LOUIS INTL MOCLDY    59  56  89 N3        29.85F FOG
SPIRIT OF STL  CLOUDY    59  58  96 NE5       29.82F FOG
COLUMBIA       CLOUDY    58  58 100 N8        29.85F FOG
JEFFERSON CITY CLOUDY    61  57  87 N3        29.86F
ROLLA          FOG       59  59 100 N7        29.81F VSB 3/4
OSAGE BEACH    FOG       60  60 100 N3        29.84F VSB 1
SPRINGFIELD    TSTM      62  62 100 SE3       29.81R FOG
BRANSON        TSTM      63  63 100 N12       29.74F VSB 3/4
JOPLIN         CLOUDY    63  61  93 E8        29.80F
WEST PLAINS    CLOUDY    64  63  96 E5        29.79F FOG

$$

IAZ060-094-KSZ022-034>040-054-083-096-NEZ052-066-093-290500-
...KANSAS...SOUTHEAST NEBRASKA AND IOWA...

CITY           SKY/WX    TMP DP  RH WIND       PRES   REMARKS
TOPEKA         CLOUDY    46  45  96 N12       29.96R
MANHATTAN      CLOUDY    45  42  89 N12       29.99R
EMPORIA        CLOUDY    47  47 100 N14G23    29.92R
CHANUTE        CLOUDY    58  55  90 N17G24    29.84R
WICHITA        CLOUDY    52  47  83 N16G26    29.88R
OMAHA          CLOUDY    43  38  82 N10       30.05R
LINCOLN        CLOUDY    42  38  85 NE12      30.08R
FALLS CITY     CLOUDY    44  42  93 N8        30.00R
LAMONI         CLOUDY    43  42  97 NE12      29.99R
DES MOINES     CLOUDY    45  38  76 NE10      30.03R

$$





USA.gov is the U.S. government's official web portal to all federal, state and local government web resources and services.